DIRECTV 8

Last updated on Sun Jun 21 2026 00:03:03 GMT+0000 (Coordinated Universal Time)

1 28659U 05019A 26171.31433647 -.00000003 00000+0 00000+0 0 9995 2 28659 0.0188 33.3038 0003095 61.8276 167.4965 1.00271999 77107
UTC large
Height (km)
Speed (km/s)
/
Latitude / Longitude
Inclination (degrees)
Orbital Period (minutes)
Azimuth
Elevation
Range (km)
Doppler Factor

Next 0 passes for location: London (51.5072 / 0.1276)

No passes found over London.
DIRECTV 8